Location: Garshuizen
(53.3675°N, 6.7248°E)
Time: 13:21:29
(UTC+00:00)

Cosmos 1726 Rocket - Pass Details

Date: 15 May 2026
Orbit: 555 x 660 km, 82.5° (Epoch: 11 June)

Event Time Altitude Azimuth Distance (km) Brightness Sun altitude
Exits shadow 21:25:52 18° 174° (S) 1,396 4.8 -12.8°
Maximum altitude 21:28:44 62° 97° (E) 629 3.4 -13.1°
Drops below altitude 10° 21:32:46 10° 17° (NNE) 1,857 6.7 -13.3°
Sets 21:34:58 0° 14° (NNE) 2,765 7.7 -13.5°
